TimeCDT,TemperatureF,Dew PointF,Humidity,Sea Level PressureIn,VisibilityMPH,Wind Direction,Wind SpeedMPH,Gust SpeedMPH,PrecipitationIn,Events,Conditions,WindDirDegrees,DateUTC
12:15 AM,69.8,64.6,83,29.99,7.0,SW,5.8,-,N/A,,Clear,220,2013-10-02 05:15:00
12:35 AM,69.4,64.8,85,29.99,7.0,SW,5.8,-,N/A,,Clear,230,2013-10-02 05:35:00
12:55 AM,69.1,64.8,86,30.00,7.0,SW,3.5,-,N/A,,Clear,230,2013-10-02 05:55:00
1:15 AM,68.9,64.6,86,30.01,7.0,SSW,3.5,-,N/A,,Scattered Clouds,210,2013-10-02 06:15:00
1:35 AM,68.9,64.8,87,30.01,5.0,Calm,Calm,-,N/A,,Mostly Cloudy,0,2013-10-02 06:35:00
1:55 AM,68.4,64.6,88,30.02,5.0,WSW,3.5,-,N/A,,Scattered Clouds,240,2013-10-02 06:55:00
2:15 AM,68.2,64.6,88,30.02,5.0,SW,3.5,-,N/A,,Clear,230,2013-10-02 07:15:00
2:35 AM,68.0,64.8,89,30.02,5.0,WSW,4.6,-,N/A,,Mostly Cloudy,240,2013-10-02 07:35:00
2:55 AM,68.2,64.8,89,30.02,5.0,WSW,4.6,-,N/A,,Overcast,250,2013-10-02 07:55:00
3:15 AM,68.2,64.9,89,30.03,5.0,WSW,4.6,-,N/A,,Overcast,250,2013-10-02 08:15:00
3:35 AM,68.7,65.3,89,30.03,5.0,WSW,4.6,-,N/A,,Overcast,250,2013-10-02 08:35:00
3:55 AM,68.9,65.3,88,30.03,5.0,WSW,3.5,-,N/A,,Overcast,250,2013-10-02 08:55:00
4:15 AM,68.9,65.3,88,30.03,5.0,West,3.5,-,N/A,,Overcast,260,2013-10-02 09:15:00
4:35 AM,69.3,65.7,88,30.04,5.0,West,4.6,-,N/A,,Overcast,260,2013-10-02 09:35:00
4:45 AM,69.8,66.2,88,30.04,5.0,WSW,6.9,-,N/A,,Overcast,250,2013-10-02 09:45:00
5:45 AM,68.0,64.4,88,30.05,5.0,West,6.9,-,N/A,,Overcast,280,2013-10-02 10:45:00
6:45 AM,66.2,62.6,88,30.06,5.0,NNW,6.9,-,N/A,,Mostly Cloudy,340,2013-10-02 11:45:00
7:45 AM,66.2,60.8,83,30.08,20.0,NNE,9.2,-,N/A,,Mostly Cloudy,20,2013-10-02 12:45:00
8:45 AM,69.8,57.2,64,30.10,20.0,NNE,9.2,-,N/A,,Mostly Cloudy,30,2013-10-02 13:45:00
9:44 AM,71.6,55.4,57,30.11,20.0,NE,11.5,-,N/A,,Scattered Clouds,40,2013-10-02 14:44:00
10:45 AM,71.6,55.4,57,30.11,20.0,NE,10.4,-,N/A,,Partly Cloudy,40,2013-10-02 15:45:00
11:45 AM,73.4,53.6,50,30.10,20.0,NE,9.2,-,N/A,,Clear,40,2013-10-02 16:45:00
12:45 PM,71.6,51.8,50,30.09,20.0,NNE,9.2,-,N/A,,Clear,30,2013-10-02 17:45:00
1:45 PM,73.4,53.6,50,30.07,20.0,NE,9.2,-,N/A,,Partly Cloudy,40,2013-10-02 18:45:00
2:45 PM,73.4,51.8,47,30.06,20.0,NNE,10.4,-,N/A,,Partly Cloudy,30,2013-10-02 19:45:00
3:45 PM,71.6,55.4,57,30.04,20.0,NE,6.9,-,N/A,,Partly Cloudy,40,2013-10-02 20:45:00
4:45 PM,71.6,51.8,50,30.03,20.0,ENE,8.1,-,N/A,,Scattered Clouds,60,2013-10-02 21:45:00
5:45 PM,68.0,57.2,68,30.03,20.0,ENE,10.4,-,N/A,,Scattered Clouds,60,2013-10-02 22:45:00
6:45 PM,68.0,59.0,73,30.04,20.0,ENE,5.8,-,N/A,,Mostly Cloudy,60,2013-10-02 23:45:00
7:45 PM,68.0,55.4,64,30.03,10.0,ENE,5.8,-,N/A,,Scattered Clouds,60,2013-10-03 00:45:00
8:45 PM,62.6,55.4,77,30.03,10.0,Calm,Calm,-,N/A,,Scattered Clouds,0,2013-10-03 01:45:00
9:15 PM,61.0,56.7,86,30.03,10.0,Calm,Calm,-,N/A,,Clear,0,2013-10-03 02:15:00
9:35 PM,60.4,56.5,87,30.03,10.0,Calm,Calm,-,N/A,,Clear,0,2013-10-03 02:35:00
9:45 PM,60.8,55.4,82,30.03,10.0,Calm,Calm,-,N/A,,Scattered Clouds,0,2013-10-03 02:45:00
9:55 PM,59.9,56.1,87,30.03,10.0,Calm,Calm,-,N/A,,Clear,0,2013-10-03 02:55:00
10:15 PM,59.9,56.5,88,30.03,10.0,Calm,Calm,-,N/A,,Clear,0,2013-10-03 03:15:00
10:35 PM,59.7,56.5,89,30.03,10.0,Calm,Calm,-,N/A,,Clear,0,2013-10-03 03:35:00
10:55 PM,60.1,57.2,90,30.03,7.0,Calm,Calm,-,N/A,,Clear,0,2013-10-03 03:55:00
11:15 PM,59.4,56.5,90,30.02,10.0,Calm,Calm,-,N/A,,Clear,0,2013-10-03 04:15:00
11:35 PM,59.0,56.1,90,30.02,10.0,Calm,Calm,-,N/A,,Clear,0,2013-10-03 04:35:00
11:55 PM,58.8,56.1,91,30.01,10.0,Calm,Calm,-,N/A,,Clear,0,2013-10-03 04:55:00